Theta_e
357 358 360 358 360 359 360 360 361 364 365 362 361 362 360 360 366 361 362 358 353 354 355 350 355 358 348 352 348 356 351 353 352 352 352 354 356 360 361 361 359 359 359 359 359 357 358 358 358 358 358 357 358 357 357 357 356 356 356 356 356 356 356 356 357 357 356 357 357 357 357 357 357 358 358 357 357 357 356 356 356 356 356 355 355
356 360 358 361 360 359 362 359 360 363 360 358 360 368 367 362 363 359 352 353 357 363 356 350 344 346 350 348 351 344 357 357 357 352 357 357 355 357 363 360 360 360 360 360 360 359 358 358 357 357 357 356 357 357 357 357 357 357 358 358 358 359 358 358 358 358 359 359 359 359 359 359 359 359 359 359 358 357 357 357 356 356 356 355 355
355 360 361 361 361 361 358 362 360 356 363 364 366 365 364 365 362 364 361 363 361 355 356 356 351 350 353 346 346 348 349 353 348 349 353 352 353 357 360 362 362 361 361 361 360 360 359 360 359 359 359 359 359 359 359 359 360 360 360 360 360 360 360 360 360 360 360 360 360 360 360 360 361 360 360 360 360 360 359 358 357 358 358 357 356
356 357 357 360 358 358 358 363 357 365 365 364 362 363 368 365 365 369 369 366 360 357 360 353 349 348 352 348 349 349 358 355 346 346 350 355 356 355 358 359 363 363 362 361 362 361 360 360 360 360 360 360 360 360 360 361 361 361 361 362 361 361 362 362 361 361 361 361 362 362 362 362 361 361 361 361 361 361 361 360 360 359 359 358 357
370 362 363 362 359 360 360 365 369 367 366 363 365 367 359 365 362 365 368 362 357 358 353 356 356 354 349 347 350 348 349 354 346 348 347 352 357 355 356 358 359 364 363 363 363 363 361 361 361 361 361 361 362 362 362 363 362 362 362 363 363 362 363 364 363 363 363 363 363 363 363 363 363 363 363 363 362 362 362 361 360 360 359 359 358
369 369 364 359 363 359 362 363 370 368 369 370 364 365 359 360 361 362 360 364 356 357 353 357 352 353 359 346 350 352 351 346 347 349 350 349 352 356 358 359 358 358 361 363 363 363 363 363 362 362 362 363 362 363 363 363 364 363 362 363 364 364 365 364 364 364 364 364 365 365 365 364 364 364 364 364 363 362 362 361 361 361 360 360 359
370 372 364 363 357 360 362 366 370 371 369 369 365 366 363 363 366 366 363 367 361 363 357 354 353 354 358 367 351 360 356 346 345 350 349 353 361 354 362 360 359 359 360 360 362 364 363 362 362 362 363 363 363 363 364 364 364 364 364 364 364 365 366 367 366 366 366 366 366 366 366 366 366 366 365 365 364 363 363 363 361 362 361 361 360
372 372 369 363 358 364 360 367 370 368 369 369 369 364 364 369 366 363 363 362 361 356 358 356 355 348 356 356 356 365 348 351 349 341 344 355 350 357 355 363 364 365 364 357 357 360 365 364 364 363 364 364 364 365 365 365 365 366 366 367 367 368 368 367 367 367 367 368 368 368 368 367 367 366 366 366 365 365 365 364 364 364 363 362 362
373 372 372 364 361 364 361 363 367 370 366 372 366 364 364 354 373 368 363 364 363 354 352 355 354 348 348 345 349 365 356 361 348 347 346 350 354 348 353 356 364 360 365 363 362 360 366 367 364 365 364 365 365 365 366 367 367 368 368 369 369 370 369 369 369 369 369 369 369 369 369 369 368 368 368 367 366 366 366 365 365 364 363 363 362
373 372 374 369 365 366 363 366 368 372 370 369 369 363 361 363 366 369 364 362 361 356 353 349 346 343 349 340 357 349 349 353 350 361 356 362 360 350 351 348 354 356 359 359 363 361 356 363 369 367 367 367 367 367 367 367 368 368 368 369 370 370 370 370 370 369 369 369 369 370 370 370 370 370 369 368 366 366 366 365 365 364 363 362 363
369 372 373 367 365 366 366 366 370 371 369 365 363 358 359 361 363 366 367 368 367 364 358 351 347 341 340 346 350 359 355 353 359 352 347 344 346 356 347 354 353 355 359 361 355 361 360 358 358 361 363 367 369 369 368 368 369 368 369 370 369 369 370 370 370 370 370 369 369 370 371 371 371 371 371 370 369 368 367 366 365 364 363 362 362
369 372 374 370 366 368 365 366 368 370 368 362 360 359 357 362 366 363 363 362 363 363 359 353 351 345 348 347 353 345 345 349 362 355 362 348 348 350 348 357 358 348 349 358 363 352 364 365 365 363 365 366 367 369 371 370 370 370 369 370 371 370 370 371 370 370 370 370 371 371 371 371 371 371 370 370 369 368 367 367 366 364 363 362 362
372 373 370 371 372 377 368 372 366 369 371 366 360 361 366 367 369 367 358 359 359 355 353 356 361 358 358 349 357 358 352 358 343 343 344 352 364 363 348 354 362 360 359 359 361 354 359 366 367 365 368 367 366 372 370 371 371 370 371 370 371 372 371 370 371 371 371 371 372 371 370 370 371 370 370 370 370 369 368 366 366 365 363 362 361
372 372 374 371 374 371 369 370 369 370 371 373 365 367 370 368 367 365 365 361 359 357 354 353 357 349 347 342 348 355 369 352 343 341 342 344 346 358 355 344 343 347 354 363 361 354 352 359 370 362 372 369 368 364 366 368 370 369 372 372 371 369 370 371 371 371 371 371 371 371 371 371 371 371 371 371 371 370 368 366 366 365 364 363 362
371 372 369 368 372 373 372 373 368 372 370 370 369 371 376 366 369 367 364 364 361 360 366 364 354 354 357 355 347 343 346 352 349 352 338 341 340 340 347 342 344 348 352 354 354 356 356 351 359 370 374 378 370 370 371 369 368 373 370 369 369 371 370 369 369 370 371 372 372 372 372 372 372 372 371 372 372 371 369 368 366 366 365 364 363
365 365 371 370 369 371 367 371 372 377 373 370 369 368 373 372 366 365 365 361 353 356 360 363 364 363 348 350 344 342 343 346 352 351 349 338 337 339 341 341 343 348 348 348 347 351 359 360 363 374 373 368 370 371 368 369 370 377 378 372 368 366 368 368 368 369 370 371 372 372 373 373 373 372 373 372 372 371 369 369 367 366 365 365 364
364 365 366 370 372 371 371 374 372 375 372 373 367 364 363 364 367 369 365 360 355 355 358 359 361 367 357 351 344 345 345 344 338 349 344 340 340 339 348 349 340 351 352 351 354 358 348 355 363 367 372 375 372 373 375 373 378 373 375 374 374 369 368 371 368 368 369 370 372 372 372 372 372 372 372 373 372 371 370 368 368 368 366 365 364
368 368 368 368 371 372 371 368 373 372 374 367 362 363 364 365 365 363 364 367 364 361 354 360 356 370 368 366 356 353 349 352 346 348 359 348 341 343 346 344 339 348 350 355 345 346 358 349 364 362 363 370 371 365 367 365 379 378 383 375 376 374 372 368 368 367 367 370 371 372 372 372 372 372 373 373 372 370 370 368 367 367 367 366 365
363 367 368 371 372 373 372 372 368 373 371 371 372 357 356 362 369 366 366 373 369 364 360 355 364 359 353 352 357 363 355 357 351 353 344 353 350 345 341 350 341 340 343 353 350 352 355 355 354 356 357 362 363 369 374 366 362 368 369 378 372 373 369 365 365 367 368 369 369 371 371 372 373 373 372 371 371 370 368 367 366 366 366 366 366
366 372 370 369 371 370 374 372 373 364 370 376 367 362 368 368 368 368 373 375 370 369 361 360 358 357 358 358 355 355 356 351 353 350 358 350 350 348 347 343 342 351 347 344 349 344 356 361 354 353 355 356 364 364 366 369 368 374 365 363 368 369 369 366 365 365 368 369 370 371 371 371 370 370 369 370 370 369 368 367 367 366 367 366 366
367 366 370 370 370 371 372 372 371 369 374 371 363 361 363 368 377 373 371 374 372 369 370 371 362 358 360 364 365 361 351 350 349 357 352 350 342 343 343 345 346 347 351 344 344 349 351 343 362 356 363 371 364 365 361 374 375 381 371 363 373 369 368 366 364 367 369 369 370 369 368 369 369 369 369 369 369 369 368 368 368 368 368 368 367
367 370 370 371 369 372 367 364 367 362 364 364 365 366 367 371 368 365 368 369 377 371 370 372 365 358 354 362 371 365 359 355 351 346 345 361 350 341 340 341 344 344 346 344 353 354 348 357 357 345 350 353 367 365 366 368 379 366 366 366 370 371 370 368 365 367 370 369 367 367 368 368 368 368 368 368 367 368 368 368 368 369 369 368 368
360 369 367 365 369 371 363 364 366 371 373 366 368 360 359 362 364 365 372 367 365 370 366 368 368 369 355 363 358 355 355 355 351 354 349 347 345 342 347 353 343 339 345 349 352 346 350 351 345 349 373 366 371 370 371 375 367 358 363 361 363 369 369 369 366 368 364 363 365 366 367 367 367 367 367 366 367 367 367 367 367 367 368 369 368
370 365 362 360 369 369 370 365 369 366 369 367 367 368 363 364 369 376 374 374 373 375 366 359 360 368 358 355 352 354 353 349 358 353 351 344 350 346 345 348 346 343 347 355 352 346 349 347 347 360 361 364 368 382 386 377 366 362 362 360 360 365 368 368 369 367 363 360 359 362 363 364 364 365 365 366 366 366 366 367 366 367 367 368 368
365 358 358 359 368 370 369 372 379 375 377 375 373 372 370 367 370 362 365 368 371 372 373 362 361 361 361 362 357 354 353 350 348 350 350 348 352 347 344 343 345 347 351 351 352 351 346 345 347 345 357 375 372 367 368 364 361 368 359 362 360 365 366 368 369 365 362 359 360 361 361 361 364 365 363 363 365 365 366 365 367 367 367 368 368
359 364 362 360 364 364 368 371 375 377 376 376 373 374 374 372 367 372 364 372 371 369 369 363 367 361 359 362 356 358 354 351 350 352 352 357 356 354 356 356 350 347 357 361 361 350 352 351 348 360 359 364 366 371 366 357 357 363 361 358 358 356 363 365 368 367 364 360 358 358 359 360 363 366 364 363 364 364 364 365 364 365 367 367 367
370 367 367 367 363 368 368 368 372 373 374 374 364 372 378 372 375 376 375 366 367 370 368 358 356 356 359 368 361 356 355 352 352 360 356 353 352 355 356 352 349 348 350 362 359 358 347 353 351 356 374 382 383 376 363 363 358 366 362 358 364 360 359 362 365 365 364 362 360 359 359 360 361 365 367 365 362 364 364 364 364 364 363 363 363
366 367 363 364 365 367 367 366 372 368 371 372 372 370 371 374 374 374 370 364 367 366 367 361 358 358 356 367 364 355 363 356 353 355 358 358 355 364 359 357 350 347 351 353 354 355 353 352 357 363 365 377 377 366 364 360 356 364 362 358 370 363 359 360 360 360 360 358 357 357 356 357 358 359 360 364 361 360 361 361 362 363 362 361 361
362 362 361 368 370 367 365 362 372 372 370 371 368 368 371 370 369 373 368 365 369 367 367 369 368 358 360 358 361 358 366 367 361 361 369 372 366 360 361 360 355 355 349 350 354 351 352 345 348 370 366 363 360 364 363 359 363 357 361 365 367 364 359 352 357 355 353 353 353 354 354 356 356 357 358 359 360 359 361 360 360 360 360 358 359
359 364 363 361 368 367 368 369 366 368 367 365 367 369 373 369 366 373 370 372 369 372 371 367 364 362 359 359 357 365 358 365 360 357 370 373 365 360 361 361 359 359 355 348 351 353 350 349 345 354 364 368 365 363 361 365 366 359 358 365 363 367 352 348 351 349 349 350 351 352 355 356 358 358 357 357 356 355 354 356 358 359 360 360 361
366 364 369 361 364 365 371 366 370 367 367 365 369 370 370 370 368 368 369 372 371 369 372 368 361 363 365 359 362 366 364 363 372 358 367 364 365 360 361 360 353 360 360 357 349 363 356 351 350 350 349 364 358 354 351 369 359 356 360 361 368 357 351 353 350 349 348 347 347 348 350 352 353 353 350 349 349 349 351 353 355 358 358 359 358
358 362 363 363 361 360 359 360 361 362 364 362 367 369 370 369 366 362 366 370 367 367 365 363 357 362 368 364 366 370 370 369 370 362 363 364 366 359 355 353 348 351 367 363 355 353 364 354 353 353 351 352 353 355 357 353 351 355 363 367 363 357 360 358 354 348 345 345 345 346 347 347 347 347 347 348 349 350 352 353 353 354 355 356 356
358 360 362 362 364 361 358 360 357 363 368 365 363 368 370 370 373 370 370 369 368 367 368 366 360 361 367 367 368 369 371 368 369 361 359 361 360 359 356 355 360 357 358 366 358 355 360 366 360 356 355 355 350 364 357 354 352 354 355 353 359 357 354 352 353 347 345 343 344 345 346 346 345 344 345 346 347 348 351 353 352 351 352 350 349
359 356 360 357 360 361 359 360 362 362 367 372 361 364 367 368 365 363 365 368 371 369 369 369 369 361 367 369 368 364 367 362 359 354 354 353 354 351 351 357 357 355 356 360 356 357 354 362 362 362 356 358 351 360 355 354 352 357 356 355 353 352 352 350 349 347 344 342 342 343 343 344 344 343 343 344 346 346 347 347 346 344 344 343 340
360 360 359 358 363 364 362 366 369 365 368 365 364 366 369 368 366 361 359 365 367 364 362 364 362 365 363 364 361 362 355 357 360 357 355 359 357 359 357 359 358 357 360 366 364 359 355 357 362 355 358 359 358 357 360 358 359 358 360 358 351 351 350 349 347 346 344 342 343 342 341 341 342 341 341 341 342 342 342 342 339 338 338 337 334
355 358 359 359 364 367 362 366 366 365 364 367 364 363 367 366 367 370 368 364 363 362 364 362 360 362 360 363 358 358 362 365 367 366 364 357 358 359 352 356 360 355 359 365 362 359 361 355 364 359 360 359 359 359 359 358 357 358 356 356 359 353 352 353 353 351 348 344 344 342 340 339 339 339 338 338 338 336 336 336 335 335 334 334 333
354 356 361 364 370 368 358 360 364 367 364 366 366 360 362 363 366 364 364 365 364 365 365 366 363 367 365 361 361 365 367 363 363 358 355 360 363 363 364 364 363 365 363 364 364 366 360 354 356 360 362 360 360 359 361 357 357 356 361 361 355 353 355 356 353 350 346 345 343 340 337 337 338 338 337 336 335 334 334 334 333 333 332 331 331
356 355 359 359 358 363 365 362 361 367 368 367 368 366 360 360 361 360 362 364 362 365 364 361 362 362 359 362 361 359 358 359 356 358 368 367 361 353 360 362 366 367 366 362 361 360 359 358 357 358 363 358 358 364 361 357 351 349 351 356 359 360 360 358 354 353 353 352 353 355 348 347 345 341 339 336 335 333 333 333 333 333 331 329 326
356 354 353 358 361 362 366 363 358 363 366 362 368 369 365 365 365 364 359 359 361 361 360 357 356 356 357 356 359 358 357 359 357 358 362 363 357 367 371 369 364 360 358 361 366 363 358 353 354 354 353 357 355 348 353 359 359 360 356 352 351 355 357 356 356 358 358 358 356 351 351 348 345 343 336 334 334 333 333 333 333 332 332 330 326
353 353 353 352 355 356 359 362 365 363 364 362 366 368 366 363 360 360 363 364 361 360 359 361 358 354 354 352 350 353 357 361 361 366 365 354 358 364 364 363 361 362 360 359 361 360 358 355 353 352 356 352 353 359 362 356 353 353 356 353 350 352 355 359 359 357 360 361 360 360 354 353 352 351 342 339 337 337 337 336 337 336 336 333 330
351 352 353 354 354 355 357 360 360 358 355 356 358 360 361 363 361 358 362 360 358 360 360 356 357 357 355 353 351 349 363 359 357 360 364 365 359 363 366 367 365 363 362 363 360 362 361 356 353 355 353 355 356 353 352 354 353 352 355 359 357 357 358 358 360 363 363 360 360 359 360 361 359 358 359 360 362 358 356 348 346 347 341 333 332
354 357 357 358 353 354 356 356 357 355 354 351 361 364 364 362 362 359 361 370 365 369 362 361 355 353 352 350 350 358 367 357 364 368 362 362 362 357 364 364 367 367 365 362 360 359 357 356 353 351 347 348 349 351 353 355 356 360 358 358 356 357 358 357 358 362 363 360 359 358 360 363 360 359 361 361 362 362 360 359 362 356 348 339 335
360 367 363 357 354 353 353 353 354 353 352 352 357 343 348 357 361 362 363 367 368 366 361 365 360 357 356 354 352 354 361 366 371 371 366 363 367 366 365 365 366 364 356 354 353 355 355 353 353 351 349 351 354 356 357 355 359 359 358 358 357 356 354 351 348 354 367 361 358 357 357 361 362 360 362 362 361 360 359 367 356 347 345 339 335
364 360 355 357 363 355 354 352 351 352 352 354 334 337 343 345 359 360 356 356 354 358 360 357 355 353 352 350 348 347 349 356 363 369 370 367 364 367 366 364 363 363 361 359 356 354 353 351 352 353 352 352 354 358 358 359 359 358 359 357 356 354 352 350 350 348 355 362 358 355 354 360 364 363 361 361 361 361 359 346 341 341 339 337 335
352 353 355 356 359 360 359 360 353 352 350 340 330 333 337 341 347 362 352 353 350 348 352 357 356 357 357 357 354 353 351 370 366 367 372 373 368 362 364 364 364 361 346 345 350 357 357 356 351 350 351 354 356 359 362 362 363 357 356 354 354 354 354 352 352 353 356 361 358 355 353 358 361 360 359 360 362 362 361 352 344 342 338 334 334
355 356 351 348 351 353 355 355 360 349 346 334 329 330 331 333 339 352 355 352 352 353 356 353 348 353 362 362 357 354 364 359 357 361 369 370 372 374 373 371 368 368 367 350 343 344 351 354 355 354 358 361 359 363 367 367 360 356 354 352 354 353 353 353 357 357 360 362 357 355 353 355 356 355 354 357 359 360 362 353 342 339 339 335 335
356 351 350 351 351 354 354 353 352 348 337 324 326 328 327 329 332 353 358 353 353 358 356 357 360 358 362 364 366 362 358 351 344 346 359 363 370 368 368 366 365 366 366 363 363 363 361 357 359 361 362 366 367 366 363 362 360 358 356 355 355 356 357 359 359 360 359 363 358 355 347 352 356 354 355 357 358 359 363 351 347 341 336 333 334
353 352 351 350 350 351 353 352 352 350 334 320 323 324 325 328 335 353 357 360 358 354 358 356 358 363 362 365 367 364 352 344 335 332 341 354 363 364 365 365 365 364 361 366 355 356 364 364 364 361 360 360 348 353 355 354 353 356 357 357 357 356 354 353 352 354 353 360 364 356 352 352 358 354 354 358 359 357 359 361 348 344 341 338 336
351 348 347 347 351 352 353 353 353 349 336 322 318 318 321 324 342 356 359 360 362 359 354 357 358 360 362 363 363 358 343 337 330 324 331 353 360 359 361 359 360 359 359 360 351 342 339 337 335 333 330 329 329 328 328 328 338 347 352 349 349 353 352 349 350 350 351 355 357 360 354 351 355 354 354 355 355 353 356 359 362 348 342 339 334
349 351 351 350 351 353 352 352 353 341 330 321 315 315 317 320 336 352 359 361 361 360 358 356 358 358 357 361 356 345 340 336 324 323 326 345 351 353 353 354 354 354 357 359 359 356 346 344 341 335 334 334 334 332 331 330 330 335 347 348 351 354 352 350 347 349 352 354 359 360 352 351 353 356 353 352 350 355 356 358 361 356 347 346 341
349 350 350 348 347 349 350 352 348 338 331 325 314 313 315 317 334 353 360 359 356 356 356 355 356 358 352 349 349 342 340 330 319 321 323 339 343 344 346 346 347 350 354 346 347 346 347 345 347 349 350 350 356 360 362 348 341 347 352 353 356 356 351 350 350 350 347 351 357 364 352 352 352 355 354 347 345 350 357 360 358 359 360 360 361
Wind_Speed
5 5 4 3 3 3 3 2 2 2 2 3 2 2 3 3 2 3 2 2 3 2 2 3 2 2 3 2 3 3 4 3 5 8 7 6 5 7 10 9 7 6 5 4 4 4 4 4 5 5 6 5 4 5 5 5 4 4 5 5 5 6 6 6 6 6 6 6 7 7 7 7 8 8 9 9 9 9 9 9 10 10 10 10 10
4 3 3 2 2 2 1 1 1 2 2 3 5 2 2 1 2 3 2 0 1 2 3 2 3 3 3 4 3 4 3 2 2 7 7 6 5 6 11 9 8 7 7 6 5 4 4 5 4 5 5 5 5 5 5 5 5 5 6 6 6 7 7 7 7 7 8 8 8 8 8 9 8 9 9 10 10 10 10 10 10 10 10 10 10
4 3 2 2 2 2 2 2 1 2 3 1 2 3 2 3 2 2 4 4 1 3 3 3 4 2 3 4 5 5 4 4 5 6 9 6 6 6 8 11 10 8 7 7 6 6 6 6 7 6 6 6 7 7 7 7 7 7 7 8 8 8 8 8 8 8 9 8 9 9 9 9 10 10 10 10 11 11 11 11 11 11 11 11 11
7 5 4 4 4 3 3 2 3 1 4 2 4 4 1 2 2 2 2 5 4 3 2 3 4 3 4 4 4 4 2 3 4 6 7 8 7 6 6 7 11 11 10 9 8 7 6 6 7 7 8 8 8 8 8 8 8 8 8 9 9 9 9 9 9 9 9 9 10 10 10 10 10 10 11 11 11 11 12 12 12 12 12 12 12
3 4 4 2 4 3 1 2 3 2 3 4 4 5 4 3 3 5 4 3 6 4 5 2 1 3 3 5 3 4 6 3 5 5 5 6 8 6 6 6 7 11 12 10 10 9 7 7 7 8 8 9 9 10 9 9 9 9 10 10 10 10 10 11 10 10 10 10 10 10 10 11 11 11 11 11 12 12 12 12 13 13 13 12 12
3 3 3 3 3 4 2 3 2 3 2 4 3 2 3 1 1 2 3 3 4 5 6 1 2 3 2 3 3 3 3 5 5 4 3 5 4 7 7 6 6 5 6 11 11 10 10 8 8 8 8 9 10 10 10 10 10 10 11 11 12 12 12 11 11 11 11 11 11 11 11 11 12 12 12 12 12 13 13 13 13 13 12 12 12
4 4 4 2 3 3 3 1 1 3 1 3 1 1 3 2 1 2 3 2 3 4 5 4 2 3 3 1 3 2 3 3 5 4 4 4 3 4 4 6 6 5 5 5 9 11 11 10 9 8 9 9 10 10 11 11 11 12 12 12 12 12 13 12 12 11 11 11 12 12 12 12 12 12 12 13 12 12 12 13 12 11 12 12 12
2 1 1 1 3 2 5 2 2 1 3 3 3 3 3 1 1 2 2 2 2 3 5 5 2 3 2 2 2 0 4 3 3 5 4 3 4 3 4 2 3 5 8 5 5 7 12 11 11 10 10 10 10 11 11 12 12 12 13 13 13 13 13 13 12 12 12 12 12 12 12 12 12 12 12 12 12 11 11 12 11 11 12 12 13
2 1 2 2 1 3 3 4 2 2 3 2 2 3 4 3 0 2 2 1 3 6 4 4 4 4 4 4 3 1 3 2 4 4 5 4 3 5 4 4 3 5 3 5 5 5 9 11 12 12 11 10 10 11 11 12 12 13 13 13 14 13 13 13 12 11 11 12 12 12 12 12 11 11 12 11 11 10 10 10 11 12 12 12 11
2 2 1 1 3 3 4 5 2 2 3 2 2 2 2 4 3 2 2 2 3 2 4 5 6 5 3 5 2 3 4 4 5 4 3 1 2 4 4 5 5 3 2 6 7 6 5 9 10 10 10 10 10 10 10 10 12 12 13 13 14 14 13 12 11 11 11 11 11 11 11 11 11 10 11 11 11 10 10 10 10 11 11 11 10
2 2 2 1 2 2 3 2 2 3 2 2 2 3 3 6 3 2 2 2 4 4 2 6 7 5 5 4 3 4 3 2 3 3 3 4 3 2 3 4 2 3 2 2 5 7 6 5 5 5 6 12 11 12 10 10 10 11 13 13 13 13 13 12 11 11 12 11 11 11 10 10 10 10 10 10 10 9 10 10 10 10 10 10 10
3 1 3 3 2 3 3 4 1 2 3 2 3 4 7 7 2 1 2 4 4 3 5 6 2 6 5 4 3 6 5 4 2 3 2 4 4 4 3 2 3 4 4 2 1 4 4 5 5 6 5 9 13 11 12 11 11 11 12 12 12 12 13 12 12 12 12 11 11 10 9 10 10 10 10 10 9 9 9 9 9 9 9 9 9
3 2 2 3 1 1 5 1 0 0 2 2 7 6 4 2 1 2 1 1 4 4 4 4 2 2 3 3 2 2 3 3 5 5 4 2 0 1 4 3 1 2 3 2 2 2 5 4 4 4 6 5 6 9 11 12 10 10 10 10 11 11 12 12 12 11 11 11 11 9 9 9 9 10 10 10 9 9 9 9 9 9 8 9 9
3 3 2 2 1 2 4 3 3 3 2 1 2 1 2 2 3 1 1 1 3 5 3 4 3 2 3 4 3 2 0 3 5 6 5 3 3 2 3 3 4 3 3 2 3 3 4 3 3 2 3 6 5 4 5 6 7 11 10 9 10 10 11 11 11 11 11 11 10 9 9 10 10 10 10 10 10 10 9 8 9 8 9 9 9
4 4 4 4 2 1 1 3 2 2 2 2 4 1 2 2 1 1 1 2 3 3 3 2 2 2 3 3 3 4 6 6 5 1 4 4 5 6 6 6 6 5 3 3 3 4 2 5 3 2 2 3 5 4 4 6 7 10 12 11 10 9 9 10 10 11 11 11 10 10 10 10 10 10 10 10 10 10 9 8 8 9 9 9 10
5 6 3 4 4 2 1 2 3 1 2 2 3 1 2 1 1 2 2 2 3 3 2 3 1 2 4 2 2 2 2 3 2 4 1 5 5 5 3 6 3 4 5 4 5 3 3 3 3 1 2 3 2 4 5 3 7 12 12 11 11 9 9 9 10 10 11 11 10 10 10 10 10 10 10 9 10 10 10 9 8 9 9 10 10
4 3 4 3 3 4 3 1 2 1 0 2 2 2 1 2 5 2 1 2 3 2 3 2 3 3 4 2 3 3 1 3 2 4 4 4 2 4 5 2 6 4 3 4 3 3 4 2 3 3 3 3 3 3 2 2 3 5 7 10 9 10 9 9 9 10 10 11 10 10 10 10 10 10 10 10 10 11 11 9 9 8 9 10 10
3 3 3 3 2 3 2 1 0 2 2 2 2 3 2 2 3 2 2 3 2 3 3 5 4 2 1 1 3 2 2 3 2 0 4 2 5 3 2 3 4 4 4 2 3 4 3 5 3 4 4 3 3 3 3 4 3 4 4 5 10 9 8 7 7 9 10 10 10 10 10 10 10 10 10 11 12 11 11 10 9 9 9 10 10
5 2 4 4 2 2 3 3 1 3 3 3 1 2 1 2 3 1 3 2 3 3 4 4 4 5 5 3 1 1 1 1 2 2 1 5 4 4 3 1 3 6 5 1 3 1 4 4 5 6 4 5 4 2 3 3 4 4 5 6 7 7 7 7 7 8 9 9 9 10 11 10 10 10 11 11 11 11 11 11 10 10 10 10 11
2 4 3 4 2 2 2 3 3 3 3 1 1 1 2 2 3 3 3 2 1 1 3 4 4 3 3 3 3 1 2 3 3 2 1 1 3 3 7 5 3 3 3 2 1 3 1 2 3 2 5 4 3 3 3 1 1 0 1 7 6 7 7 7 7 7 7 8 8 9 10 10 10 10 10 10 10 10 11 11 10 10 10 11 11
3 4 3 3 3 3 2 3 2 3 3 2 2 2 2 2 2 3 3 2 2 2 1 0 2 1 1 2 2 2 2 4 4 1 0 1 3 3 4 5 6 7 2 3 4 3 1 5 2 2 3 1 3 1 1 1 2 1 4 7 5 7 7 8 6 5 5 6 7 8 9 10 10 10 10 10 10 11 11 10 11 11 11 11 11
4 3 4 3 3 3 3 4 4 2 1 2 2 2 3 2 2 4 4 2 1 2 2 2 1 4 3 4 2 2 3 2 3 3 2 1 2 1 2 5 4 5 7 5 2 2 3 2 2 6 4 4 2 2 2 1 1 3 3 6 6 7 8 7 6 5 5 5 6 7 9 9 9 9 9 9 10 10 11 11 11 11 11 12 12
5 4 4 4 4 3 4 3 2 1 1 4 0 2 3 3 1 2 2 3 0 1 2 2 3 1 3 5 7 4 4 3 3 3 2 3 3 1 1 2 2 4 6 5 4 5 3 3 3 2 1 2 2 2 1 1 3 3 5 7 7 9 8 8 6 5 5 6 6 7 8 9 9 9 9 9 10 10 11 11 11 11 11 11 12
3 3 4 5 3 3 2 1 2 2 1 3 2 2 3 2 1 1 2 2 2 1 2 1 2 2 1 2 4 2 3 3 3 2 5 5 2 2 2 2 4 4 6 3 5 6 4 5 5 1 3 3 2 2 0 2 4 11 4 7 10 10 9 9 7 6 7 7 7 7 8 9 9 9 9 10 10 11 11 11 11 11 11 11 11
4 5 5 6 3 3 3 3 0 3 3 2 2 3 4 2 1 2 3 2 0 1 1 1 1 2 3 3 3 2 4 1 1 2 2 5 2 4 2 2 4 4 3 2 2 2 5 7 6 4 1 2 2 2 1 3 4 5 5 6 10 10 11 10 8 6 8 9 8 8 9 10 10 10 10 10 10 11 11 11 11 11 12 11 12
5 4 3 3 5 5 3 4 3 2 3 2 2 1 3 3 1 2 1 1 1 3 3 2 1 3 3 4 4 4 4 3 3 3 6 1 1 1 2 3 4 2 3 0 2 3 3 5 7 4 4 3 2 1 3 3 4 6 7 5 7 11 11 10 7 7 10 10 9 10 11 11 10 9 9 10 10 10 10 11 11 12 12 12 12
2 5 4 3 5 3 5 5 4 3 3 3 3 3 2 3 2 0 0 1 2 2 2 2 1 1 4 2 3 4 7 6 4 8 3 4 3 3 1 3 3 4 3 2 2 1 4 3 2 3 1 1 1 3 4 3 5 8 9 6 5 3 8 9 7 9 11 11 11 12 12 12 11 10 10 10 10 10 11 11 11 12 12 12 12
4 4 7 5 6 4 4 5 4 5 4 3 3 2 1 2 2 2 2 1 2 3 3 0 1 1 5 1 3 3 3 6 7 5 4 3 5 3 4 2 2 2 3 2 2 3 3 3 2 2 2 0 3 3 7 8 2 7 10 6 4 2 5 8 10 12 13 13 13 13 12 12 13 13 12 10 11 11 10 11 12 12 13 13 13
4 5 5 5 4 6 5 6 5 3 4 4 4 5 3 3 4 3 3 2 2 2 4 2 2 3 3 3 4 7 2 3 3 4 3 4 1 5 4 4 3 2 1 2 2 3 4 3 2 2 3 3 4 5 5 6 5 6 3 3 2 3 5 10 12 13 15 14 14 14 13 12 13 14 14 13 12 12 11 10 11 12 12 13 13
5 3 5 5 4 5 4 4 5 5 5 5 4 5 5 4 3 3 3 3 3 2 3 3 1 4 5 3 5 1 6 1 2 4 3 2 1 4 3 1 2 3 3 2 3 3 4 4 5 2 3 4 5 6 5 3 4 7 4 3 3 2 8 12 13 15 17 17 14 15 13 12 12 14 15 13 13 12 11 10 10 12 12 12 12
4 3 2 6 5 5 4 4 4 4 4 5 4 4 4 3 3 3 2 1 2 3 4 4 5 5 4 4 5 4 1 1 2 4 2 3 2 5 3 1 2 5 4 3 2 2 2 5 5 7 5 4 3 4 5 1 2 6 4 4 3 5 9 9 14 17 19 18 17 15 14 12 13 16 15 13 13 12 11 11 12 11 12 12 12
5 5 5 6 5 7 7 7 7 7 6 5 6 4 3 4 3 4 3 3 4 4 4 4 4 3 2 3 2 2 2 2 1 4 4 5 4 6 5 2 3 10 4 3 3 4 2 4 4 6 8 6 7 5 4 4 5 5 3 3 5 8 7 7 12 15 13 13 14 13 12 13 15 17 15 14 14 13 12 12 12 13 13 13 12
7 8 6 5 5 5 7 7 8 6 5 5 5 5 4 4 3 2 2 3 4 4 3 4 3 5 4 3 3 3 2 3 4 5 5 6 3 8 7 8 6 1 2 1 2 3 3 2 4 4 6 6 5 3 4 4 5 4 4 5 5 5 6 7 6 9 14 14 10 9 10 14 16 17 14 15 16 14 13 12 13 13 14 14 13
6 7 6 7 7 6 6 5 5 5 5 3 5 4 5 4 5 5 5 5 5 5 4 3 2 4 2 3 2 3 4 5 4 4 3 3 6 8 10 10 6 6 5 6 5 3 2 2 3 3 6 4 5 5 5 7 6 5 5 4 5 5 4 4 6 7 13 14 8 9 11 15 16 15 14 15 17 15 15 14 13 13 14 14 13
5 6 8 8 5 6 5 4 3 4 2 5 5 4 4 4 4 5 5 5 5 5 5 4 4 4 4 4 4 4 6 5 6 6 4 2 2 2 1 2 3 3 4 3 1 1 2 3 2 4 3 4 4 5 5 5 5 5 4 4 6 7 6 6 7 8 13 13 9 10 12 14 13 12 14 16 16 16 17 16 14 14 13 14 13
9 7 7 8 4 5 5 4 5 5 8 7 5 4 4 5 4 3 3 3 4 5 4 3 4 4 4 3 4 4 3 3 2 2 2 3 3 3 4 4 4 4 4 3 4 3 2 2 1 3 3 4 5 6 7 5 4 4 4 5 4 5 7 8 7 7 8 9 10 11 13 11 11 13 16 16 16 16 17 17 15 13 13 14 13
8 8 5 4 3 3 7 5 4 4 5 5 5 6 4 5 5 5 5 5 6 5 5 4 4 3 3 3 3 3 3 3 3 3 3 3 2 1 1 2 2 2 3 3 3 1 2 4 4 3 4 5 6 7 5 4 4 4 4 4 5 6 6 6 8 8 10 13 11 12 13 12 13 15 16 15 15 16 17 16 15 14 14 14 14
7 5 3 4 5 6 5 6 5 5 4 4 5 5 6 5 6 5 4 4 4 3 3 5 5 5 5 4 5 5 4 3 3 3 2 2 2 3 2 2 1 1 1 3 3 4 4 5 4 4 3 5 2 2 3 5 7 7 6 5 5 5 5 6 7 9 9 8 8 8 9 10 13 17 15 12 14 15 14 15 15 15 15 15 14
4 6 7 6 4 4 4 5 7 5 5 6 5 5 5 4 3 4 6 5 4 4 5 6 6 6 7 6 5 6 6 4 3 3 3 3 2 1 1 1 2 3 3 3 1 2 3 3 3 3 4 3 4 6 5 4 4 3 5 7 7 5 6 7 7 7 8 10 12 13 12 11 12 10 12 14 13 13 13 15 16 16 16 14 13
7 8 9 9 9 8 8 7 4 5 5 6 5 4 4 5 5 5 3 1 3 4 5 5 4 6 6 6 6 5 5 4 3 2 3 5 4 1 2 3 4 4 3 3 3 3 3 3 3 4 3 4 6 3 2 5 6 6 5 5 8 8 7 5 6 8 8 8 8 9 9 9 10 13 13 10 10 12 15 15 16 15 15 13 12
8 10 10 10 8 8 6 6 6 7 8 9 7 6 5 5 5 5 3 4 4 4 4 5 5 5 6 5 7 7 3 3 5 8 3 2 1 2 2 2 2 2 3 2 3 3 4 4 5 4 4 4 3 4 5 4 5 6 6 5 6 7 8 8 7 6 6 9 8 8 8 8 10 10 9 9 8 12 13 13 10 13 13 12 13
9 7 8 6 7 6 6 8 7 7 7 7 7 11 9 4 4 5 2 1 2 1 2 3 6 7 7 7 8 9 6 9 4 7 4 4 3 5 2 1 0 1 2 3 4 4 4 4 4 4 5 5 4 4 4 4 4 4 6 6 7 8 8 8 7 3 6 8 8 9 9 8 10 11 9 9 8 8 7 7 5 6 8 13 12
5 4 4 5 6 6 9 8 6 6 7 4 7 12 9 9 6 4 3 2 2 2 3 3 5 5 5 6 7 7 7 7 5 11 9 9 7 6 6 4 2 2 2 3 5 4 5 5 5 5 5 6 5 4 3 5 4 5 6 6 7 7 8 9 12 10 3 6 8 9 10 9 8 8 7 8 9 8 7 5 4 4 6 8 10
5 4 6 5 3 6 5 6 6 5 3 10 19 10 11 12 10 6 5 4 4 3 5 6 5 5 6 7 7 7 5 4 6 2 4 6 7 6 6 7 6 7 6 5 4 4 5 5 5 5 5 6 6 3 4 4 4 5 5 6 6 7 9 9 8 10 8 7 8 9 10 7 6 7 8 8 8 7 8 10 7 7 7 9 11
11 14 11 8 4 3 3 1 1 3 7 6 9 9 9 13 16 9 6 4 4 5 4 3 3 3 4 4 4 4 5 9 5 5 3 1 5 5 2 3 4 5 6 8 8 6 4 5 5 7 6 5 6 4 3 4 3 6 6 6 6 6 7 8 8 8 10 8 8 8 8 7 6 6 7 6 6 5 5 6 9 8 9 10 12
1 2 9 8 12 12 9 6 7 7 5 5 7 7 7 7 5 5 6 5 4 3 3 4 5 4 3 4 4 3 5 5 5 5 4 3 1 2 2 2 2 3 5 9 10 11 9 6 6 6 5 4 6 4 4 3 4 5 6 7 6 8 8 8 9 10 10 9 7 7 7 5 5 6 6 5 6 6 6 8 11 10 9 11 12
3 4 3 1 3 1 5 6 6 5 3 8 10 10 10 9 7 4 3 4 4 2 3 3 4 6 7 6 5 5 5 6 5 8 6 5 3 2 2 2 2 2 3 5 5 5 4 6 6 6 5 4 4 4 4 5 5 6 6 8 8 8 8 8 8 7 8 3 7 7 6 7 5 6 6 7 8 6 5 7 11 10 10 11 11
2 2 1 2 3 2 2 2 1 4 5 11 10 10 10 9 9 4 3 2 3 4 2 6 4 4 4 6 4 5 7 6 9 13 10 8 5 4 3 3 2 3 4 5 6 5 5 4 3 4 4 6 6 7 7 7 6 7 7 6 6 7 7 7 7 7 7 3 1 6 6 6 5 7 7 7 8 8 8 6 6 11 12 10 10
4 6 5 0 3 4 4 2 2 5 6 9 10 11 10 11 5 2 3 4 2 4 4 4 4 5 6 7 6 6 7 7 9 12 14 12 6 5 5 5 4 4 4 5 4 6 7 6 7 8 9 11 13 13 13 14 11 7 2 5 8 6 6 7 7 6 6 6 7 3 5 7 6 7 8 7 7 9 8 6 5 7 12 12 12
3 3 2 1 3 3 3 2 2 6 5 8 11 11 9 9 6 3 3 4 2 3 4 4 4 5 8 14 11 7 6 4 7 11 13 10 6 6 7 7 7 6 5 4 4 3 2 4 6 9 12 13 14 15 14 15 17 8 3 5 6 5 6 7 8 7 7 6 3 4 5 5 7 5 7 7 7 4 6 6 5 7 9 8 11
3 2 2 3 5 4 3 3 10 8 6 7 11 10 10 9 6 3 3 2 3 2 1 3 3 2 5 8 12 8 5 4 7 8 9 7 5 6 6 6 6 6 4 6 4 5 5 6 5 6 6 7 6 6 8 15 16 10 5 6 4 4 5 6 6 6 7 3 4 3 5 5 6 5 4 7 7 7 3 4 6 6 6 7 6
Wind_Direction
157 162 173 148 162 160 170 167 208 179 179 223 244 249 234 238 340 331 46 157 162 105 227 211 123 126 124 162 102 156 119 148 155 137 131 137 150 166 175 179 188 192 203 211 213 208 217 226 241 236 237 251 252 253 259 257 255 262 266 262 259 258 252 257 262 267 266 266 266 267 267 266 262 260 261 262 263 267 269 269 270 269 271 269 267
156 152 161 144 158 167 188 174 190 226 245 231 215 172 44 347 313 335 272 13 137 133 217 194 155 148 168 148 166 100 142 155 100 121 133 137 137 153 175 182 189 200 204 215 232 241 240 250 243 257 259 253 250 259 274 280 284 282 278 278 273 269 274 273 274 272 270 268 269 270 271 271 268 267 266 265 269 269 270 274 271 267 262 264 268
153 162 169 150 172 175 161 230 240 230 215 195 6 67 49 13 326 288 348 310 13 188 231 213 111 170 197 143 143 162 165 170 151 150 131 129 136 151 177 181 191 199 206 217 224 237 247 256 261 270 272 274 277 283 280 281 282 283 281 278 279 277 276 278 278 278 278 275 273 274 273 271 272 271 269 269 269 270 272 272 275 278 279 279 277
154 172 174 171 182 187 187 172 230 346 28 9 35 52 329 202 331 293 292 324 312 291 219 166 182 144 202 146 133 105 86 202 143 112 116 143 148 154 156 183 191 196 203 205 213 227 243 255 265 268 274 276 277 277 278 278 279 279 279 278 278 277 277 278 276 276 275 274 274 275 274 274 273 273 272 272 272 272 272 272 274 276 277 276 273
120 160 128 169 128 138 200 90 357 104 68 43 26 46 11 2 3 348 340 353 319 327 327 211 157 198 152 148 101 130 191 176 103 130 131 141 149 150 164 171 182 196 201 207 206 209 227 245 254 262 268 272 273 275 276 278 277 276 275 276 276 276 277 277 277 276 276 277 278 278 278 277 275 274 274 273 274 275 275 277 278 278 277 275 277
172 106 167 137 105 121 142 88 146 38 73 61 53 35 344 355 305 11 348 350 320 329 292 323 109 232 185 117 143 179 176 133 125 125 140 125 153 156 163 169 164 174 192 205 213 208 210 225 242 255 264 269 273 275 275 275 274 274 272 272 273 275 278 281 283 284 285 285 285 283 283 281 279 278 277 275 278 281 280 279 279 279 279 280 281
44 22 5 89 135 124 74 77 62 79 99 100 97 195 185 223 27 13 351 305 295 287 304 297 99 349 11 28 147 170 75 69 123 136 139 139 168 101 122 157 170 169 179 171 206 214 208 210 227 242 252 261 268 272 272 271 271 271 273 273 275 278 280 282 284 284 285 285 283 282 280 281 280 280 282 285 284 280 280 280 279 280 280 282 282
104 87 95 74 110 165 129 162 122 136 60 41 46 349 295 234 86 145 287 328 358 291 292 295 266 152 151 83 46 170 128 162 158 135 135 112 128 149 134 138 160 165 170 166 176 198 207 206 210 221 233 247 259 265 269 270 270 272 273 275 277 279 281 283 283 282 282 282 283 283 285 286 288 288 288 286 283 279 279 279 279 278 278 280 282
119 60 39 321 151 135 136 102 46 99 77 74 71 328 331 354 61 76 139 241 296 288 252 230 242 160 186 168 170 136 138 226 110 72 87 129 170 150 170 152 167 152 147 153 175 180 196 204 206 209 221 232 239 253 262 270 275 279 280 281 282 281 282 283 284 284 285 286 286 287 287 289 289 289 289 289 287 284 281 281 281 281 282 284 283
126 99 47 245 45 50 103 122 156 78 83 92 69 63 342 291 277 172 151 248 249 296 330 316 268 181 155 115 132 71 62 52 94 139 174 163 111 144 173 142 195 164 181 157 171 162 189 202 206 214 216 220 231 236 247 262 270 274 278 280 282 283 285 284 284 284 284 285 284 285 287 288 289 290 290 288 287 283 283 283 283 283 285 284 283
127 144 78 21 154 131 84 96 143 109 123 94 106 76 31 286 274 32 324 294 277 274 204 233 254 169 126 89 79 92 95 122 200 161 168 158 145 169 169 142 148 106 146 211 164 169 179 172 188 200 219 222 220 228 232 241 255 263 269 275 278 282 283 284 283 282 283 282 282 283 285 288 287 287 285 284 282 280 280 278 279 284 286 286 288
151 114 59 41 40 200 137 97 68 149 123 127 69 150 183 236 190 105 346 323 304 295 280 231 340 68 105 158 157 137 159 193 130 88 46 124 170 220 117 144 157 166 179 180 33 153 152 164 185 195 207 210 211 217 222 225 232 243 255 263 272 276 280 283 284 283 282 282 284 285 286 285 284 284 284 282 279 275 272 272 274 278 282 284 285
132 76 150 130 209 35 81 17 95 206 100 173 182 179 176 171 53 108 198 297 300 306 286 345 110 124 108 113 109 127 155 186 155 176 168 141 345 302 119 125 64 102 80 100 215 196 152 163 196 192 195 203 209 210 219 222 223 232 238 248 258 268 277 282 284 283 283 283 284 284 283 280 277 278 277 276 273 269 268 268 268 269 272 278 282
141 125 117 129 324 157 147 162 192 175 201 214 65 173 172 191 171 119 292 219 260 255 55 43 318 167 179 149 172 183 176 213 180 170 146 163 164 202 175 150 172 160 153 148 217 233 161 152 201 208 137 174 190 198 217 238 241 236 236 237 247 258 269 278 281 283 284 284 283 282 278 275 272 269 270 270 270 269 267 266 265 264 266 271 275
162 163 164 155 143 6 358 137 254 157 85 42 305 242 216 98 347 218 181 249 286 313 46 48 305 4 29 53 41 20 339 355 327 40 165 164 175 203 176 183 166 150 146 185 225 218 204 166 179 207 164 142 179 181 195 212 217 222 227 231 234 244 259 269 278 282 284 284 284 282 280 275 271 271 271 271 271 270 271 266 264 263 264 266 271
174 169 147 135 158 136 220 172 188 94 111 201 237 337 6 296 168 66 52 358 19 335 243 102 155 312 53 31 31 42 9 317 315 313 296 184 197 158 195 163 131 124 160 182 224 137 169 180 150 218 168 193 215 181 195 228 209 212 215 217 218 226 234 252 264 276 281 283 282 280 279 276 275 273 270 272 271 272 272 265 261 261 264 265 267
172 168 153 143 127 146 206 241 126 120 327 35 12 302 342 300 73 18 21 31 19 324 314 106 87 65 110 105 63 36 260 262 286 313 324 317 226 116 16 140 141 147 230 195 144 170 170 174 163 190 229 205 209 182 175 226 167 206 216 217 213 217 225 231 251 269 277 281 283 283 282 281 280 279 278 276 277 277 276 273 269 261 260 262 265
157 188 122 124 142 156 113 16 28 180 163 163 229 240 114 313 112 81 317 75 71 331 338 331 84 81 60 133 157 147 195 293 275 248 325 320 316 91 171 247 128 145 227 125 169 223 255 147 197 198 205 233 218 184 197 228 209 199 201 206 214 220 222 228 245 264 276 282 287 290 290 289 287 285 281 281 282 281 281 281 275 267 260 261 263
162 165 138 139 172 146 147 154 314 251 187 203 211 43 60 205 82 114 71 48 33 352 345 358 14 23 8 338 158 285 145 340 12 22 10 317 346 348 287 296 79 177 188 176 176 171 204 163 194 203 205 199 207 228 194 220 208 193 152 164 193 219 232 236 241 254 268 279 289 291 292 291 290 287 285 283 283 282 284 283 279 271 264 260 261
127 129 195 148 152 172 151 105 230 9 296 97 136 141 185 97 84 60 51 14 122 18 2 355 30 329 312 333 344 73 220 305 339 67 226 301 329 335 341 358 309 92 108 122 109 260 252 182 214 219 164 160 175 211 250 222 231 193 169 166 194 216 238 241 246 259 270 292 299 300 298 296 293 290 289 289 288 287 286 285 282 276 265 263 263
192 179 183 166 173 176 163 136 189 194 257 47 78 212 91 92 106 77 44 9 356 59 337 59 324 346 221 289 3 356 19 26 317 224 63 10 293 38 318 329 355 346 52 127 220 293 267 207 279 311 99 76 166 193 263 63 97 218 157 178 205 229 239 247 250 257 272 288 300 299 294 292 291 293 293 290 287 286 286 284 281 278 274 268 263
161 220 155 192 179 182 186 175 206 162 225 56 251 192 141 160 128 139 170 170 29 333 351 348 11 29 353 300 55 5 11 19 318 18 303 122 165 78 309 332 343 301 324 297 305 224 290 327 303 248 149 221 159 180 239 192 188 202 197 177 215 229 240 246 249 255 263 274 284 286 288 288 288 289 288 287 286 285 283 280 279 277 274 271 270
179 182 183 193 188 194 201 177 146 65 155 186 166 318 57 44 33 116 74 112 23 317 284 354 50 56 333 14 29 1 59 339 328 317 332 26 27 3 354 271 285 319 293 309 320 280 263 288 258 311 47 14 48 55 57 246 214 269 160 201 220 232 235 239 240 245 252 258 261 273 279 282 285 285 284 285 284 283 281 279 276 275 273 270 268
87 166 196 198 169 201 167 193 177 204 182 89 43 38 98 96 77 203 185 78 218 116 356 336 310 84 184 96 106 116 56 346 301 294 36 17 317 111 270 317 315 248 271 306 287 298 283 236 251 207 149 140 219 179 65 341 301 281 253 233 243 235 231 233 233 236 251 250 254 265 273 278 281 282 283 283 284 284 283 282 280 279 278 274 271
166 196 185 195 155 200 192 149 358 146 98 115 178 185 103 127 301 71 78 286 347 191 124 211 240 150 225 142 137 138 148 154 307 330 127 192 192 127 298 229 247 280 268 302 306 274 268 267 233 226 225 155 105 93 271 254 258 246 214 253 252 242 228 229 226 237 250 251 254 259 263 267 269 269 279 279 279 281 282 285 284 281 280 279 276
192 184 184 189 168 190 175 138 181 167 158 143 152 101 141 128 166 58 73 153 148 238 213 278 267 243 189 143 178 171 149 182 112 52 250 98 218 139 186 232 270 291 240 189 255 272 307 337 356 16 44 24 11 260 237 249 272 202 208 240 243 233 228 224 223 234 246 254 255 256 258 260 262 259 268 274 271 272 278 281 284 285 282 280 277
211 164 167 189 175 216 164 171 166 183 186 180 191 171 183 148 134 199 128 223 247 251 116 229 251 344 303 217 195 179 169 184 155 205 182 176 196 179 150 321 336 314 333 306 335 314 263 307 302 342 29 259 211 276 279 282 281 196 209 233 262 243 219 211 217 232 245 250 254 256 258 260 261 260 261 263 270 272 279 282 281 283 281 279 276
194 191 162 189 199 169 177 178 178 182 186 189 200 138 160 156 122 169 258 305 50 332 312 295 165 150 296 294 241 222 177 154 181 180 183 187 207 162 123 110 126 298 317 318 315 283 221 233 331 282 311 310 278 301 283 268 264 181 217 245 268 299 216 198 220 238 243 247 252 254 256 261 265 266 267 263 268 273 275 276 278 282 285 285 282
201 196 185 166 197 167 195 180 178 187 187 179 176 153 200 202 180 190 207 183 112 253 261 180 228 153 201 314 5 291 244 170 165 147 191 244 61 93 123 153 188 288 286 298 285 299 294 279 237 257 214 218 254 248 267 275 242 229 258 269 282 293 185 203 227 245 252 248 249 252 249 253 262 266 265 266 267 271 272 270 275 278 279 285 286
208 158 186 186 185 187 194 190 178 190 192 189 190 171 187 194 191 193 208 159 193 223 240 278 255 128 226 167 213 81 281 118 74 203 138 332 24 102 94 37 196 236 195 253 294 291 293 326 324 256 271 258 236 236 234 255 156 218 279 287 263 299 174 214 238 260 271 272 263 255 248 245 255 261 264 266 268 270 272 267 267 272 273 278 279
134 173 202 198 173 185 203 187 187 201 195 197 187 177 188 206 176 195 189 157 241 236 219 218 230 186 189 198 216 209 273 299 250 31 24 122 282 88 84 8 292 272 216 210 279 296 345 306 306 334 314 230 285 339 300 316 294 267 266 282 288 285 281 276 275 273 272 275 270 258 247 241 246 255 259 264 266 266 264 267 270 266 270 274 281
179 165 214 197 190 186 196 211 193 199 195 205 186 192 186 209 194 207 174 198 217 236 244 223 235 64 234 256 190 221 226 60 37 130 192 235 118 75 20 333 244 249 239 211 236 265 276 292 315 322 301 339 336 311 330 316 308 299 278 300 303 300 284 271 269 271 276 271 268 261 246 239 243 250 253 259 264 262 262 264 267 271 276 279 284
194 181 201 196 181 204 205 196 213 173 194 214 187 180 188 187 192 201 208 202 216 238 245 264 235 180 230 219 212 212 209 211 208 217 208 133 169 144 175 221 238 333 306 303 254 281 285 283 294 291 323 316 294 289 304 318 322 312 305 286 281 280 276 275 279 299 308 302 280 260 237 235 241 247 249 254 260 261 261 262 264 267 273 279 283
198 194 194 206 193 208 211 198 218 168 186 197 226 189 185 197 211 203 205 206 219 226 246 247 267 276 220 202 225 235 218 218 234 252 244 194 180 164 192 203 187 199 214 209 205 221 279 307 303 304 283 306 322 343 333 317 299 292 285 289 287 288 292 307 310 303 303 304 283 246 233 237 243 247 249 253 258 262 262 263 262 263 269 276 280
227 184 203 213 191 193 214 174 204 142 201 220 221 217 177 189 219 228 209 193 213 229 226 217 233 231 227 228 231 224 239 226 202 214 220 203 210 244 287 206 198 219 191 197 138 254 276 272 274 295 318 328 313 306 298 293 289 287 307 314 317 309 307 314 317 312 297 297 271 241 241 246 254 260 256 255 259 263 265 265 265 263 265 271 276
200 219 194 212 194 187 200 194 191 178 183 206 215 221 187 199 213 215 187 210 236 237 248 252 229 227 246 235 240 261 297 318 301 302 320 276 268 235 216 218 205 217 219 205 196 212 224 275 267 288 281 288 287 277 274 273 287 311 300 288 288 309 311 298 292 298 307 310 277 265 262 268 272 263 259 260 261 262 264 266 267 265 264 267 271
209 206 192 185 185 172 207 206 192 206 192 199 209 226 217 208 204 217 215 206 219 223 228 232 243 252 254 262 266 269 248 230 239 242 248 251 251 244 268 8 4 10 34 23 346 289 253 258 262 252 262 262 260 267 270 299 308 294 286 290 296 286 282 281 294 306 305 305 291 270 267 266 269 271 267 265 259 257 259 264 268 267 263 263 266
215 208 159 227 203 192 204 213 204 200 210 207 208 226 231 219 213 218 232 236 228 231 239 231 228 227 240 234 231 231 248 269 285 282 299 339 354 294 318 301 278 349 320 289 262 253 244 251 254 276 258 274 295 316 329 321 302 301 308 306 299 295 303 306 305 310 315 313 312 321 314 293 289 291 291 266 259 258 264 269 269 266 262 261 262
219 233 193 196 229 211 195 219 223 204 202 213 212 206 224 248 237 214 237 249 225 214 229 243 246 238 227 229 222 221 228 224 254 283 275 255 244 294 220 229 249 239 239 247 285 322 327 317 306 295 299 313 326 298 291 301 315 320 328 330 321 318 319 316 315 319 319 320 320 307 291 287 292 294 296 290 277 277 273 267 264 262 260 259 260
215 220 225 206 203 209 195 209 227 229 210 220 218 220 220 221 234 228 220 226 287 275 275 281 280 278 278 267 259 243 202 217 226 256 248 258 258 305 8 17 7 357 353 348 341 311 292 294 286 297 293 288 288 289 343 7 350 340 335 323 316 322 318 310 313 317 313 308 306 311 315 318 319 310 298 282 276 277 276 272 265 258 257 254 252
219 225 222 214 197 204 200 201 214 222 224 219 221 211 215 217 249 266 195 205 245 262 276 286 284 264 260 268 271 268 296 289 224 234 251 75 353 309 310 336 341 335 319 312 289 295 296 286 286 281 286 300 318 341 345 342 339 309 313 325 321 317 318 313 311 311 310 315 306 311 315 325 314 311 314 313 308 297 291 283 274 264 251 242 242
211 221 228 208 204 193 199 210 207 217 235 242 221 210 193 201 211 239 238 196 249 279 281 282 286 285 292 289 290 297 280 263 216 152 175 226 216 255 261 181 345 336 322 306 302 297 294 297 300 313 310 305 316 327 325 324 316 333 338 336 319 318 312 307 299 291 320 306 315 314 311 315 317 309 306 304 306 303 302 306 297 253 229 227 229
250 233 226 243 225 206 205 207 209 221 239 253 270 181 173 186 205 203 239 261 217 232 262 257 261 273 282 287 289 295 312 301 213 189 194 210 209 206 224 225 197 211 253 273 285 296 301 302 302 304 306 310 308 310 309 324 348 346 324 320 313 311 315 319 317 310 288 322 311 312 308 309 303 297 303 309 307 302 307 319 293 258 240 220 222
297 267 242 232 235 240 237 229 212 232 22 0 336 267 182 186 194 203 209 219 236 218 218 237 249 262 268 276 279 288 284 335 25 6 267 232 206 194 203 216 215 215 215 227 242 258 263 274 285 285 295 295 303 319 331 335 322 314 307 309 304 306 308 307 301 301 311 327 313 304 298 299 296 296 300 296 296 299 311 321 305 269 244 223 221
347 327 323 302 260 276 260 291 309 48 95 2 324 334 268 198 191 208 227 222 254 272 282 267 257 242 255 267 284 273 290 25 17 6 354 294 226 231 326 340 287 251 235 230 228 246 277 277 282 283 280 296 301 305 317 309 298 294 308 307 311 305 300 295 293 301 306 303 294 290 294 304 297 292 294 295 296 308 320 335 326 291 236 231 231
317 303 60 3 350 329 340 341 45 50 61 1 10 20 36 5 312 237 215 233 234 258 273 291 291 309 328 319 309 313 56 45 23 357 358 338 56 161 187 214 258 269 246 227 227 232 228 238 251 266 274 270 275 288 291 285 305 308 310 302 303 300 295 289 295 290 287 281 278 292 298 310 319 323 312 319 325 323 318 313 303 285 256 248 250
349 45 51 149 195 302 19 29 123 134 62 12 30 31 21 14 6 343 294 285 275 271 285 305 6 15 16 6 15 60 68 49 17 357 353 350 339 266 208 211 220 245 256 263 252 242 222 218 227 243 261 268 279 293 298 297 292 291 285 288 291 287 287 289 284 281 284 354 353 310 308 320 330 325 320 323 324 318 318 320 302 294 286 282 277
49 335 316 274 288 305 64 80 140 95 59 24 28 29 19 10 1 339 289 271 269 274 323 48 52 45 30 16 16 63 62 47 12 0 1 337 321 308 309 299 274 253 255 241 223 239 256 291 307 295 298 297 288 278 276 282 286 273 282 290 292 289 290 294 301 313 309 354 312 333 318 322 334 325 320 320 320 317 318 300 323 333 328 320 295
182 236 231 269 2 357 13 54 105 82 47 25 30 24 15 8 353 325 304 294 333 55 62 42 40 27 31 25 14 63 61 45 10 13 5 353 332 338 321 313 305 301 305 298 227 238 261 257 258 267 270 276 279 277 275 269 260 266 332 309 283 284 295 309 310 316 326 349 332 349 339 313 331 325 317 320 325 315 305 318 333 336 336 322 306
152 263 306 84 48 22 16 2 84 88 71 38 34 27 18 4 342 310 317 325 26 43 62 74 69 67 52 49 58 70 71 56 21 21 11 1 359 351 335 325 314 300 290 320 338 346 329 310 289 275 274 275 278 278 276 272 271 256 185 243 273 300 305 314 317 325 321 312 308 32 332 309 316 320 319 317 313 281 312 308 333 330 320 321 305
153 154 92 85 71 51 38 46 85 83 76 45 34 36 31 14 349 308 309 6 31 42 67 97 103 87 85 69 73 71 76 61 38 29 14 9 355 342 338 320 310 305 332 21 348 329 322 314 307 302 292 277 267 261 255 260 262 261 190 233 278 298 314 309 314 321 317 322 328 8 328 311 318 315 356 333 318 304 267 319 319 311 325 317 313